• In Deutschland
  • Länderverzeichnis
  • Für 7 Tage
  • Wassertemperatur
  • Satellitenkarten
  • Wetterkarte
  • Widgets
  • user-avatar
    Anmelden

    Stündliche Wetter Armak

    Heute, 24 April, Dienstag

    Zeit Temperatur Niederschläge Wind Luftdruck Luftfeuchtigkeit
    00:00 +10°C° 0 mm 1 m/S 684 mmHg 32%
    01:00 +10°C° 0 mm 1 m/S 683 mmHg 32%
    02:00 +9°C° 0 mm 1 m/S 683 mmHg 32%
    03:00 +9°C° 0 mm 1 m/S 683 mmHg 33%
    04:00 +8°C° 0 mm 1 m/S 682 mmHg 33%
    05:00 +10°C° 0 mm 1 m/S 682 mmHg 32%
    06:00 +11°C° 0 mm 1 m/S 682 mmHg 32%
    07:00 +12°C° 0 mm 1 m/S 683 mmHg 31%
    08:00 +15°C° 0 mm 2 m/S 683 mmHg 27%
    09:00 +18°C° 0 mm 2 m/S 683 mmHg 23%
    10:00 +21°C° 0 mm 3 m/S 683 mmHg 19%
    11:00 +22°C° 0 mm 3 m/S 682 mmHg 17%
    12:00 +25°C° 0 mm 4 m/S 682 mmHg 16%
    13:00 +26°C° 0 mm 4 m/S 682 mmHg 14%
    14:00 +26°C° 0 mm 4 m/S 681 mmHg 15%
    15:00 +26°C° 0 mm 4 m/S 680 mmHg 15%
    16:00 +26°C° 0 mm 4 m/S 680 mmHg 16%
    17:00 +24°C° 0 mm 3 m/S 679 mmHg 20%
    18:00 +20°C° 0 mm 2 m/S 678 mmHg 24%
    19:00 +18°C° 0 mm 2 m/S 678 mmHg 28%
    20:00 +17°C° 0 mm 2 m/S 678 mmHg 31%
    21:00 +15°C° 0 mm 2 m/S 678 mmHg 34%
    22:00 +13°C° 0 mm 3 m/S 679 mmHg 37%
    23:00 +12°C° 0 mm 3 m/S 679 mmHg 48%

    Morgen, 25 April, Mittwoch

    Zeit Temperatur Niederschläge Wind Luftdruck Luftfeuchtigkeit
    00:00 +11°C° 0 mm 3 m/S 679 mmHg 58%
    01:00 +10°C° 0 mm 3 m/S 680 mmHg 69%
    02:00 +9°C° 0 mm 3 m/S 680 mmHg 73%
    03:00 +8°C° 0 mm 2 m/S 681 mmHg 77%
    04:00 +8°C° 0 mm 2 m/S 681 mmHg 82%
    05:00 +8°C° 0 mm 2 m/S 682 mmHg 78%
    06:00 +9°C° 0 mm 2 m/S 683 mmHg 73%
    07:00 +9°C° 0 mm 2 m/S 683 mmHg 69%
    08:00 +12°C° 0 mm 2 m/S 684 mmHg 60%
    09:00 +14°C° 0 mm 2 m/S 684 mmHg 52%
    10:00 +16°C° 0 mm 1 m/S 684 mmHg 43%
    11:00 +18°C° 0 mm 1 m/S 684 mmHg 38%
    12:00 +20°C° 0 mm 1 m/S 684 mmHg 34%
    13:00 +21°C° 0 mm 1 m/S 684 mmHg 29%
    14:00 +21°C° 0 mm 1 m/S 684 mmHg 27%
    15:00 +22°C° 0 mm 1 m/S 684 mmHg 26%
    16:00 +20°C° 0 mm 0 m/S 683 mmHg 24%
    17:00 +21°C° 0 mm 1 m/S 683 mmHg 28%
    18:00 +19°C° 0 mm 1 m/S 682 mmHg 31%
    19:00 +16°C° 0 mm 2 m/S 682 mmHg 35%
    20:00 +15°C° 0 mm 1 m/S 682 mmHg 39%
    21:00 +13°C° 0 mm 1 m/S 682 mmHg 43%
    22:00 +12°C° 0 mm 1 m/S 682 mmHg 46%
    23:00 +11°C° 0 mm 1 m/S 682 mmHg 49%

    übermorgen, 26 April, Donnerstag

    Zeit Temperatur Niederschläge Wind Luftdruck Luftfeuchtigkeit
    00:00 +11°C° 0 mm 1 m/S 682 mmHg 52%
    01:00 +10°C° 0 mm 1 m/S 681 mmHg 54%
    02:00 +10°C° 0 mm 1 m/S 681 mmHg 55%
    03:00 +10°C° 0 mm 1 m/S 682 mmHg 56%
    04:00 +9°C° 0 mm 1 m/S 682 mmHg 57%
    05:00 +11°C° 0 mm 1 m/S 682 mmHg 52%
    06:00 +12°C° 0 mm 1 m/S 683 mmHg 47%
    07:00 +14°C° 0 mm 1 m/S 684 mmHg 42%
    08:00 +16°C° 0 mm 1 m/S 684 mmHg 39%
    09:00 +19°C° 0 mm 1 m/S 685 mmHg 36%
    10:00 +22°C° 0 mm 1 m/S 685 mmHg 32%
    11:00 +23°C° 0 mm 1 m/S 685 mmHg 30%
    12:00 +24°C° 0 mm 2 m/S 685 mmHg 28%
    13:00 +25°C° 0 mm 2 m/S 684 mmHg 26%
    14:00 +25°C° 0 mm 2 m/S 684 mmHg 25%
    15:00 +25°C° 0 mm 2 m/S 683 mmHg 24%
    16:00 +25°C° 0 mm 2 m/S 682 mmHg 23%
    17:00 +23°C° 0 mm 2 m/S 681 mmHg 26%
    18:00 +20°C° 0 mm 2 m/S 681 mmHg 30%
    19:00 +18°C° 0 mm 2 m/S 680 mmHg 33%
    20:00 +18°C° 0 mm 1 m/S 679 mmHg 36%
    21:00 +16°C° 0 mm 1 m/S 679 mmHg 39%
    22:00 +14°C° 0 mm 1 m/S 679 mmHg 42%
    23:00 +14°C° 0 mm 1 m/S 679 mmHg 46%

    27 April, Freitag

    Zeit Temperatur Niederschläge Wind Luftdruck Luftfeuchtigkeit
    00:00 +13°C° 0 mm 2 m/S 679 mmHg 50%
    01:00 +12°C° 0 mm 2 m/S 678 mmHg 55%
    02:00 +10°C° 0 mm 2 m/S 679 mmHg 62%
    03:00 +10°C° 0 mm 2 m/S 679 mmHg 69%
    04:00 +9°C° 0 mm 3 m/S 679 mmHg 76%
    05:00 +10°C° 0 mm 2 m/S 679 mmHg 73%
    06:00 +10°C° 0 mm 2 m/S 680 mmHg 71%
    07:00 +12°C° 0 mm 2 m/S 681 mmHg 68%
    08:00 +13°C° 0 mm 2 m/S 681 mmHg 62%
    09:00 +13°C° 0 mm 3 m/S 682 mmHg 57%
    10:00 +16°C° 0 mm 3 m/S 682 mmHg 51%
    11:00 +16°C° 0 mm 3 m/S 682 mmHg 50%
    12:00 +16°C° 0 mm 3 m/S 682 mmHg 50%
    13:00 +16°C° 0 mm 3 m/S 682 mmHg 49%
    14:00 +14°C° 0,1 mm 3 m/S 681 mmHg 51%
    15:00 +14°C° 0,1 mm 3 m/S 681 mmHg 54%
    16:00 +13°C° 0,1 mm 4 m/S 680 mmHg 56%
    17:00 +12°C° 0,7 mm 3 m/S 680 mmHg 63%
    18:00 +10°C° 0,7 mm 2 m/S 680 mmHg 69%
    19:00 +9°C° 0,7 mm 2 m/S 680 mmHg 76%
    20:00 +9°C° 0,4 mm 2 m/S 681 mmHg 78%
    21:00 +8°C° 0,4 mm 2 m/S 682 mmHg 80%
    22:00 +8°C° 0,4 mm 2 m/S 682 mmHg 82%
    23:00 +8°C° 0,4 mm 2 m/S 682 mmHg 82%

    28 April, Samstag

    Zeit Temperatur Niederschläge Wind Luftdruck Luftfeuchtigkeit
    00:00 +7°C° 0,4 mm 2 m/S 683 mmHg 82%
    01:00 +6°C° 0,4 mm 2 m/S 683 mmHg 83%
    02:00 +6°C° 0,1 mm 2 m/S 683 mmHg 82%
    03:00 +6°C° 0,1 mm 2 m/S 684 mmHg 80%
    04:00 +5°C° 0,1 mm 2 m/S 684 mmHg 79%
    05:00 +5°C° 0,1 mm 2 m/S 685 mmHg 76%
    06:00 +5°C° 0,1 mm 2 m/S 685 mmHg 73%
    07:00 +6°C° 0,1 mm 2 m/S 685 mmHg 70%
    08:00 +6°C° 0,1 mm 2 m/S 685 mmHg 65%
    09:00 +7°C° 0,1 mm 2 m/S 686 mmHg 60%
    10:00 +9°C° 0,1 mm 1 m/S 686 mmHg 54%
    11:00 +10°C° 0,1 mm 1 m/S 685 mmHg 52%
    12:00 +10°C° 0,1 mm 1 m/S 685 mmHg 50%
    13:00 +11°C° 0,1 mm 1 m/S 685 mmHg 48%
    14:00 +10°C° 0,3 mm 2 m/S 684 mmHg 49%
    15:00 +9°C° 0,3 mm 2 m/S 684 mmHg 49%
    16:00 +9°C° 0,3 mm 2 m/S 684 mmHg 50%
    17:00 +8°C° 0,1 mm 2 m/S 684 mmHg 52%
    18:00 +7°C° 0,1 mm 2 m/S 684 mmHg 54%
    19:00 +6°C° 0,1 mm 2 m/S 684 mmHg 57%
    20:00 +7°C° 0 mm 1 m/S 684 mmHg 58%
    21:00 +6°C° 0 mm 1 m/S 684 mmHg 60%
    22:00 +5°C° 0 mm 1 m/S 685 mmHg 62%
    23:00 +5°C° 0 mm 1 m/S 685 mmHg 62%

    29 April, Sonntag

    Zeit Temperatur Niederschläge Wind Luftdruck Luftfeuchtigkeit
    00:00 +5°C° 0 mm 1 m/S 684 mmHg 62%
    01:00 +4°C° 0 mm 1 m/S 684 mmHg 62%
    02:00 +4°C° 0 mm 1 m/S 684 mmHg 63%
    03:00 +3°C° 0 mm 1 m/S 684 mmHg 64%
    04:00 +2°C° 0 mm 0 m/S 684 mmHg 64%
    05:00 +4°C° 0 mm 1 m/S 684 mmHg 60%
    06:00 +5°C° 0 mm 1 m/S 684 mmHg 56%
    07:00 +6°C° 0 mm 1 m/S 684 mmHg 51%
    08:00 +8°C° 0 mm 1 m/S 684 mmHg 49%
    09:00 +8°C° 0 mm 2 m/S 684 mmHg 46%
    10:00 +9°C° 0 mm 2 m/S 683 mmHg 43%
    11:00 +10°C° 0 mm 2 m/S 683 mmHg 42%
    12:00 +12°C° 0 mm 2 m/S 682 mmHg 41%
    13:00 +13°C° 0 mm 2 m/S 682 mmHg 39%
    14:00 +13°C° 0,1 mm 2 m/S 681 mmHg 40%
    15:00 +12°C° 0,1 mm 2 m/S 681 mmHg 40%
    16:00 +12°C° 0,1 mm 2 m/S 680 mmHg 41%
    17:00 +10°C° 0,1 mm 2 m/S 680 mmHg 45%
    18:00 +10°C° 0,1 mm 1 m/S 680 mmHg 49%
    19:00 +9°C° 0,1 mm 1 m/S 680 mmHg 54%
    20:00 +9°C° 0,1 mm 1 m/S 681 mmHg 57%
    21:00 +8°C° 0,1 mm 1 m/S 681 mmHg 60%
    22:00 +7°C° 0,1 mm 1 m/S 682 mmHg 63%
    23:00 +6°C° 0 mm 1 m/S 682 mmHg 66%
    Mehr zeigen